Tracking 30415 objects as of 14-May-2025
HD Live streaming from Space Station
objects crossing your sky now

FENGYUN 1C DEB

Track FENGYUN 1C DEB now!
10-day predictions


NORAD ID: 37477
Int'l Code: 1999-025EJX
Perigee: 809.7 km
Apogee: 862.7 km
Inclination: 98.6 °
Period: 101.5 minutes
Semi major axis: 7207 km
RCS: 0.0017 m2 (small)
Launch date: May 10, 1999
Source: People's Republic of China (PRC)
Launch site: Taiyaun Space Center, China (TSC)

Note: This is SATELLITE DEBRIS
Your satellite tracking list
Your tracking list is empty




NASA's NSSDC Master Catalog

Two Line Element Set (TLE):
1 37477U 99025EJX 25132.48970949  .00001697  00000-0  82953-3 0  9999
2 37477  98.6039 143.2762 0036759   8.5845 351.5952 14.18900070788755
Source of the keplerian elements: AFSPC